Location: ??????
(38.1303°N, 24.0039°E)
Time: 23:58:11
(UTC+00:00)

OAO 1 - Visible Passes

Search period start: 23 October 2021 00:00
Search period end: 02 November 2021 00:00
Orbit: 773 x 784 km, 35.0° (Epoch: 23 October)

Date Brightness Start Highest point End Pass type
(mag) Time Alt. Az. Time Alt. Az. Time Alt. Az.
23 Oct 4.8 17:12:13 10° WSW 17:17:35 56° S 17:19:07 42° ESE visible
23 Oct 7.0 18:58:20 10° W 18:59:29 17° W 18:59:29 17° W visible
24 Oct 4.9 16:35:27 10° WSW 16:40:46 53° SSE 16:44:19 21° E visible
24 Oct 5.9 18:21:30 10° W 18:24:42 35° WSW 18:24:42 35° WSW visible
25 Oct 5.1 15:58:41 10° WSW 16:03:58 50° SSE 16:09:17 10° E visible
25 Oct 4.7 17:44:40 10° W 17:49:53 63° SSW 17:49:53 63° SSW visible
26 Oct 4.7 17:07:51 10° W 17:13:18 65° S 17:15:05 41° ESE visible
26 Oct 7.0 18:54:11 10° W 18:55:28 17° W 18:55:28 17° W visible
27 Oct 4.7 16:31:03 10° W 16:36:29 64° S 16:40:18 20° ESE visible
27 Oct 5.9 18:17:19 10° W 18:20:40 34° WSW 18:20:40 34° WSW visible
28 Oct 4.8 15:54:14 10° WSW 15:59:40 64° S 16:05:06 10° E visible
28 Oct 4.9 17:40:29 10° W 17:45:49 51° SSW 17:45:55 51° S visible
29 Oct 5.0 17:03:39 10° W 17:09:00 54° SSW 17:11:12 33° SE visible
29 Oct 7.1 18:50:24 10° W 18:51:35 15° WSW 18:51:35 15° WSW visible
30 Oct 5.0 16:26:49 10° W 16:32:12 57° S 16:36:32 16° ESE visible
30 Oct 6.2 18:13:27 10° W 18:16:55 26° SW 18:16:55 26° SW visible
31 Oct 5.0 15:49:59 10° W 15:55:23 59° S 16:00:47 10° ESE visible
31 Oct 5.8 17:36:32 10° W 17:41:20 31° SSW 17:42:21 29° S visible
01 Nov 5.8 16:59:38 10° W 17:04:34 34° SSW 17:07:52 18° SSE visible
